When you browse on this site, cookies collect data to enhance your experience and personalize the content and advertising you see.
Visit our Privacy Policy to learn more. By continuing to use the site, you agree to this use of cookies and data.
  • In Romania
  • List of Countries
  • For 7 days
  • Water Temperature
  • Weather Map
  • Weather Widgets
  • user-avatar
    Login

    Hourly Weather Ipswich

    Today, 26 May, Tuesday

    Time Temperature Precipitation Wind Pressure Humidity
    00:00 +13°C° 0 mm 2 mps 775 mmHg 90%
    01:00 +13°C° 0 mm 2 mps 775 mmHg 90%
    02:00 +12°C° 0 mm 2 mps 775 mmHg 90%
    03:00 +12°C° 0 mm 1 mps 775 mmHg 90%
    04:00 +13°C° 0 mm 1 mps 775 mmHg 87%
    05:00 +14°C° 0 mm 1 mps 775 mmHg 85%
    06:00 +14°C° 0 mm 1 mps 775 mmHg 82%
    07:00 +16°C° 0 mm 2 mps 775 mmHg 77%
    08:00 +17°C° 0 mm 2 mps 775 mmHg 72%
    09:00 +18°C° 0 mm 2 mps 775 mmHg 67%
    10:00 +19°C° 0 mm 2 mps 775 mmHg 63%
    11:00 +20°C° 0 mm 2 mps 775 mmHg 60%
    12:00 +21°C° 0 mm 2 mps 775 mmHg 57%
    13:00 +21°C° 0 mm 2 mps 775 mmHg 58%
    14:00 +21°C° 0 mm 2 mps 775 mmHg 60%
    15:00 +23°C° 0 mm 2 mps 775 mmHg 61%
    16:00 +21°C° 0 mm 2 mps 775 mmHg 67%
    17:00 +20°C° 0 mm 2 mps 774 mmHg 72%
    18:00 +19°C° 0 mm 2 mps 774 mmHg 78%
    19:00 +18°C° 0 mm 2 mps 775 mmHg 81%
    20:00 +16°C° 0 mm 2 mps 775 mmHg 83%
    21:00 +15°C° 0 mm 2 mps 775 mmHg 86%
    22:00 +15°C° 0 mm 1 mps 775 mmHg 85%
    23:00 +15°C° 0 mm 1 mps 775 mmHg 84%

    Tomorrow, 27 May, Wednesday

    Time Temperature Precipitation Wind Pressure Humidity
    00:00 +15°C° 0 mm 1 mps 775 mmHg 83%
    01:00 +15°C° 0 mm 1 mps 775 mmHg 83%
    02:00 +14°C° 0 mm 1 mps 775 mmHg 84%
    03:00 +14°C° 0 mm 2 mps 775 mmHg 84%
    04:00 +14°C° 0 mm 2 mps 775 mmHg 83%
    05:00 +15°C° 0 mm 2 mps 775 mmHg 83%
    06:00 +15°C° 0 mm 2 mps 775 mmHg 82%
    07:00 +16°C° 0 mm 3 mps 775 mmHg 79%
    08:00 +16°C° 0 mm 3 mps 776 mmHg 76%
    09:00 +17°C° 0 mm 3 mps 776 mmHg 73%
    10:00 +17°C° 0 mm 3 mps 776 mmHg 71%
    11:00 +18°C° 0 mm 4 mps 776 mmHg 70%
    12:00 +18°C° 0 mm 4 mps 776 mmHg 68%
    13:00 +18°C° 0 mm 4 mps 776 mmHg 68%
    14:00 +18°C° 0 mm 4 mps 776 mmHg 68%
    15:00 +17°C° 0 mm 5 mps 776 mmHg 68%
    16:00 +17°C° 0 mm 5 mps 776 mmHg 70%
    17:00 +16°C° 0 mm 5 mps 776 mmHg 72%
    18:00 +15°C° 0 mm 5 mps 776 mmHg 74%
    19:00 +13°C° 0 mm 4 mps 776 mmHg 80%
    20:00 +11°C° 0 mm 4 mps 776 mmHg 85%
    21:00 +8°C° 0 mm 4 mps 776 mmHg 90%
    22:00 +8°C° 0 mm 4 mps 776 mmHg 90%
    23:00 +8°C° 0 mm 3 mps 776 mmHg 91%

    Day after tomorrow, 28 May, Thursday

    Time Temperature Precipitation Wind Pressure Humidity
    00:00 +8°C° 0 mm 3 mps 776 mmHg 91%
    01:00 +8°C° 0 mm 3 mps 776 mmHg 92%
    02:00 +8°C° 0 mm 3 mps 776 mmHg 93%
    03:00 +8°C° 0 mm 3 mps 775 mmHg 94%
    04:00 +9°C° 0 mm 3 mps 775 mmHg 91%
    05:00 +10°C° 0 mm 3 mps 775 mmHg 87%
    06:00 +11°C° 0 mm 3 mps 775 mmHg 84%
    07:00 +13°C° 0 mm 3 mps 775 mmHg 78%
    08:00 +14°C° 0 mm 3 mps 775 mmHg 71%
    09:00 +16°C° 0 mm 3 mps 775 mmHg 65%
    10:00 +17°C° 0 mm 3 mps 774 mmHg 63%
    11:00 +17°C° 0 mm 3 mps 774 mmHg 60%
    12:00 +18°C° 0 mm 3 mps 774 mmHg 58%
    13:00 +18°C° 0 mm 3 mps 774 mmHg 59%
    14:00 +18°C° 0 mm 3 mps 773 mmHg 59%
    15:00 +18°C° 0 mm 3 mps 773 mmHg 60%
    16:00 +17°C° 0 mm 3 mps 773 mmHg 64%
    17:00 +15°C° 0 mm 4 mps 772 mmHg 68%
    18:00 +14°C° 0 mm 4 mps 772 mmHg 71%
    19:00 +13°C° 0 mm 3 mps 772 mmHg 76%
    20:00 +11°C° 0 mm 3 mps 772 mmHg 81%
    21:00 +9°C° 0 mm 3 mps 772 mmHg 86%
    22:00 +9°C° 0 mm 3 mps 772 mmHg 86%
    23:00 +9°C° 0 mm 2 mps 772 mmHg 85%

    29 May, Friday

    Time Temperature Precipitation Wind Pressure Humidity
    00:00 +8°C° 0 mm 2 mps 772 mmHg 85%
    01:00 +8°C° 0 mm 2 mps 771 mmHg 86%
    02:00 +8°C° 0 mm 2 mps 771 mmHg 87%
    03:00 +8°C° 0 mm 2 mps 771 mmHg 88%
    04:00 +9°C° 0 mm 2 mps 771 mmHg 86%
    05:00 +10°C° 0 mm 3 mps 771 mmHg 84%
    06:00 +11°C° 0 mm 3 mps 771 mmHg 81%
    07:00 +13°C° 0 mm 3 mps 771 mmHg 75%
    08:00 +14°C° 0 mm 3 mps 771 mmHg 68%
    09:00 +17°C° 0 mm 3 mps 770 mmHg 62%
    10:00 +17°C° 0 mm 3 mps 770 mmHg 61%
    11:00 +18°C° 0 mm 4 mps 770 mmHg 60%
    12:00 +18°C° 0 mm 4 mps 770 mmHg 59%
    13:00 +18°C° 0 mm 4 mps 769 mmHg 58%
    14:00 +18°C° 0 mm 4 mps 769 mmHg 57%
    15:00 +17°C° 0 mm 4 mps 769 mmHg 56%
    16:00 +17°C° 0 mm 4 mps 769 mmHg 60%
    17:00 +15°C° 0 mm 4 mps 768 mmHg 64%
    18:00 +14°C° 0 mm 4 mps 768 mmHg 69%
    19:00 +12°C° 0 mm 4 mps 768 mmHg 75%
    20:00 +10°C° 0 mm 4 mps 768 mmHg 82%
    21:00 +8°C° 0 mm 4 mps 768 mmHg 89%
    22:00 +8°C° 0 mm 4 mps 768 mmHg 91%
    23:00 +7°C° 0 mm 4 mps 768 mmHg 93%

    30 May, Saturday

    Time Temperature Precipitation Wind Pressure Humidity
    00:00 +7°C° 0 mm 4 mps 768 mmHg 94%
    01:00 +7°C° 0 mm 4 mps 768 mmHg 94%
    02:00 +8°C° 0 mm 3 mps 768 mmHg 94%
    03:00 +8°C° 0 mm 3 mps 768 mmHg 95%
    04:00 +9°C° 0 mm 3 mps 768 mmHg 92%
    05:00 +10°C° 0 mm 4 mps 768 mmHg 89%
    06:00 +11°C° 0 mm 4 mps 768 mmHg 86%
    07:00 +13°C° 0 mm 4 mps 768 mmHg 80%
    08:00 +14°C° 0 mm 4 mps 768 mmHg 74%
    09:00 +15°C° 0 mm 4 mps 768 mmHg 69%
    10:00 +17°C° 0 mm 4 mps 768 mmHg 67%
    11:00 +18°C° 0 mm 4 mps 768 mmHg 66%
    12:00 +17°C° 0 mm 5 mps 768 mmHg 64%
    13:00 +17°C° 0 mm 5 mps 767 mmHg 64%
    14:00 +17°C° 0 mm 5 mps 767 mmHg 65%
    15:00 +17°C° 0 mm 5 mps 767 mmHg 65%
    16:00 +16°C° 0 mm 5 mps 767 mmHg 68%
    17:00 +16°C° 0 mm 5 mps 767 mmHg 72%
    18:00 +15°C° 0 mm 5 mps 766 mmHg 75%
    19:00 +14°C° 0 mm 5 mps 767 mmHg 77%
    20:00 +13°C° 0 mm 5 mps 767 mmHg 80%
    21:00 +10°C° 0 mm 5 mps 767 mmHg 83%
    22:00 +10°C° 0 mm 5 mps 767 mmHg 85%
    23:00 +11°C° 0 mm 4 mps 767 mmHg 88%

    31 May, Sunday

    Time Temperature Precipitation Wind Pressure Humidity
    00:00 +11°C° 0 mm 4 mps 767 mmHg 90%
    01:00 +11°C° 0 mm 4 mps 766 mmHg 91%
    02:00 +10°C° 0 mm 4 mps 766 mmHg 92%
    03:00 +10°C° 0 mm 4 mps 766 mmHg 93%
    04:00 +11°C° 0 mm 4 mps 766 mmHg 90%
    05:00 +12°C° 0 mm 4 mps 766 mmHg 87%
    06:00 +13°C° 0 mm 4 mps 766 mmHg 84%
    07:00 +14°C° 0 mm 5 mps 766 mmHg 78%
    08:00 +16°C° 0 mm 5 mps 766 mmHg 72%
    09:00 +17°C° 0 mm 5 mps 766 mmHg 66%
    10:00 +17°C° 0 mm 5 mps 766 mmHg 64%
    11:00 +19°C° 0 mm 5 mps 766 mmHg 61%
    12:00 +19°C° 0 mm 5 mps 766 mmHg 59%
    13:00 +19°C° 0 mm 5 mps 765 mmHg 59%
    14:00 +19°C° 0 mm 5 mps 765 mmHg 60%
    15:00 +19°C° 0 mm 5 mps 765 mmHg 60%
    16:00 +17°C° 0 mm 5 mps 765 mmHg 64%
    17:00 +16°C° 0 mm 5 mps 764 mmHg 68%
    18:00 +15°C° 0 mm 5 mps 764 mmHg 71%
    19:00 +14°C° 0 mm 4 mps 764 mmHg 78%
    20:00 +12°C° 0 mm 4 mps 764 mmHg 85%
    21:00 +10°C° 0 mm 3 mps 764 mmHg 91%
    22:00 +10°C° 0 mm 3 mps 764 mmHg 92%
    23:00 +10°C° 0 mm 3 mps 764 mmHg 92%
    Show more